False Pass, AK

12:10 AM HST on December 16, 2017 (GMT -1000)
False Pass

Weather History for PAKF - October, 2012

Change the Weather History Date:

Thursday, October 11, 2012

  Actual Average (PACD) Record (PACD)
Temperature  
Mean Temperature 49 °F -  
Max Temperature 50 °F 46 °F 54 °F (1960)
Min Temperature 48 °F 36 °F 25 °F (2000)
Degree Days  
Heating Degree Days 16    
Moisture  
Dew Point 45 °F    
Average Humidity 87    
Maximum Humidity 93    
Minimum Humidity 77    
Precipitation  
Precipitation 0.16 in - - ()
Sea Level Pressure  
Sea Level Pressure 29.60 in    
Wind  
Wind Speed - (North)    
Max Wind Speed -    
Max Gust Speed -    
Visibility 8 miles    
Events Rain    
Averages and records for this station are not official NWS values.
T = Trace of Precipitation, MM = Missing Value Source: NWS Daily Summary

Daily Weather History Graph

Daily Weather History Graph

Search for Another Location

Airport or City:

Trip Planner

Search our weather history database for the weather conditions in past years. The results will help you decide how hot, cold, wet, or windy it might be!

Date:

Astronomy

Oct. 11, 2012 Rise Set
Actual Time 8:16 AM HDT 7:02 PM HDT
Civil Twilight 7:40 AM HDT 7:38 PM HDT
Nautical Twilight 6:58 AM HDT 8:20 PM HDT
Astronomical Twilight 6:16 AM HDT 9:02 PM HDT
Moon 3:32 AM HDT (10/11) 5:15 PM HDT (10/11)
Length of Visible Light 11h 58m
Length of Day
10h 46m
Waning Crescent, 17% of the Moon is Illuminated
Oct 11
Waning Crescent
Oct 15
New
Oct 21
First Quarter
Oct 29
Full
Nov 6
Last Quarter

Hourly Weather History & Observations

Time (HDT) Temp. Dew Point Humidity Pressure Visibility Wind Dir Wind Speed Gust Speed Precip Events Conditions
12:01 AM 48.9 °F 46.9 °F 93% 29.78 in 5.0 mi North - - 0.05 in Rain Light Rain
12:23 AM 48.2 °F 46.4 °F 93% 29.51 in 4.0 mi North - - 0.01 in Rain Light Rain
12:58 AM 48.2 °F 46.4 °F 93% 29.50 in 2.5 mi North - - 0.03 in Rain Light Rain
1:01 AM 48.2 °F 46.4 °F 93% 29.50 in 3.0 mi North - - 0.03 in Rain Light Rain
1:13 AM 48.9 °F 46.9 °F 93% 29.78 in 3.0 mi North - - 0.04 in Rain Light Rain
2:01 AM 48.9 °F 46.9 °F 93% 29.76 in 10.0 mi North - - 0.00 in Rain Light Rain
2:38 AM 48.2 °F 46.4 °F 93% 29.49 in 3.0 mi North - - 0.02 in Rain Light Rain
3:01 AM 48.2 °F 46.4 °F 93% 29.49 in 3.0 mi North - - 0.03 in Rain Light Rain
3:26 AM 48.2 °F 46.4 °F 93% 29.48 in 5.0 mi North - - 0.05 in Rain Light Rain
4:01 AM 50.0 °F 46.9 °F 89% 29.75 in 10.0 mi North - - 0.05 in   Overcast
4:49 AM 48.2 °F 46.4 °F 93% 29.46 in 10.0 mi North - - 0.00 in Rain Light Rain
5:01 AM 48.9 °F 46.9 °F 93% 29.74 in 7.0 mi North - - 0.00 in   Overcast
6:01 AM 48.9 °F 46.9 °F 93% 29.73 in 7.0 mi North - - 0.02 in Rain Light Rain
7:01 AM 48.9 °F 46.0 °F 90% 29.72 in 10.0 mi North - - 0.01 in Rain Light Rain
8:01 AM 48.9 °F 46.0 °F 90% 29.70 in 9.0 mi North - - 0.02 in Rain Light Rain
9:01 AM 48.9 °F 46.0 °F 90% 29.70 in 10.0 mi North - - 0.02 in Rain Light Rain
10:49 AM 50.0 °F 44.6 °F 82% 29.40 in 10.0 mi North - - N/A   Overcast
11:01 AM 48.9 °F 45.0 °F 86% 29.67 in 10.0 mi North - - N/A   Overcast
12:01 PM 50.0 °F 45.0 °F 83% 29.65 in 10.0 mi North - - N/A   Overcast
1:01 PM 50.0 °F 45.0 °F 83% 29.64 in 10.0 mi North - - N/A   Overcast
2:01 PM 50.0 °F 45.0 °F 83% 29.61 in 10.0 mi North - - N/A   Overcast
3:01 PM 50.0 °F 45.0 °F 83% 29.59 in 10.0 mi North - - N/A   Overcast
4:01 PM 50.0 °F 45.0 °F 83% 29.57 in 10.0 mi North - - N/A   Overcast
5:01 PM 50.0 °F 44.1 °F 80% 29.54 in 10.0 mi North - - N/A   Overcast
6:01 PM 50.0 °F 44.1 °F 80% 29.54 in 10.0 mi North - - 0.00 in Rain Light Rain
7:01 PM 50.0 °F 44.1 °F 80% 29.53 in 10.0 mi North - - 0.00 in   Overcast
8:01 PM 50.0 °F 44.1 °F 80% 29.52 in 10.0 mi North - - N/A   Overcast
9:01 PM 50.0 °F 43.0 °F 77% 29.51 in 10.0 mi North - - N/A   Overcast
10:01 PM 50.0 °F 43.0 °F 77% 29.51 in 10.0 mi North - - N/A   Overcast
11:01 PM 50.0 °F 43.0 °F 77% 29.50 in 10.0 mi North - - N/A   Overcast